Location: Aula-Vintri
(58.3875°N, 22.4322°E)
Time: 01:32:02
(UTC+00:00)

ERS-1 Rocket - Pass Details

Date: 13 October 2019
Orbit: 753 x 758 km, 98.5° (Epoch: 12 November)

Event Time Altitude Azimuth Distance (km) Brightness Sun altitude
Exits shadow 18:42:26 38° 40° (NE) 1,154 3.8 -25.2°
Drops below altitude 10° 18:46:28 10° 352° (N) 2,304 5.9 -25.6°
Sets 18:48:53 0° 345° (NNW) 3,233 6.9 -25.9°
